Back to catalog

STARLINK-6162

AliveCommunicationsVLEO
NORAD 57131·PAYLOAD·🇺🇸 United States

Launched Jun 23, 2023 from Cape Canaveral Space Force Station

Loading…

Next Passes (next 24 hours)

TLE

FreshSource: CelesTrak SupGP

Epoch: Sep 14, 2026, 22:01 UTC

1 57131C 23090AG  26257.91784722  .00018993  00000+0  68807-3 0  2571
2 57131  43.0025 274.4139 0001467 298.8206 166.9968 15.27562893    10

Track STARLINK-6162 in real time with AllMySat

Download on the App Store